Погода в Кирове

Хотите узнать прогноз погоды в Кирове? Тогда Вам сюда: Погода в Кирове

Поиск расширенной информации на нашем сайте:

Полезная информация:

Новости сайта



02.01.2020
Опубликован Долгосрочный прогноз погоды по городам России и ближнего зарубежья на январь 2020 года.
Карты: Прогноз на январь и февраль 2020 года, Сравнение прогнозируемой аномалии приземной температуры воздуха на январь 2020 года по разным моделям.




Погода в Кирове - сегодня

Время (UTC), дата Ветер
(°,м/с) 
Видим.   Явления Облачность Т
(°С)
Тd
(°С)
f(%) Тe
(°С)
Pmin
(гПа)
dP
(гПа)
Po
(мм)
O2
(г/м3)
Тmin Tmax R s Состояние
почвы
18 28.11.20 090 (В) 2-4{05}  20000 м    6/0 средняя 
[Ac lent]
-10.8 -12.6 87 -13  1040.8  1.2  765  322           
21 28.11.20 100 (В) 4-7{07}  20000 м    9/9 600 м 
[Sc]
-11.9 -13.6 87 -16  1042.4  1.5  766  324           
00 29.11.20 100 (В) 2-5{07}  20000 м    10/10 600 м 
[Sc]
-10.3 -11.9 88 -12  1043.3  767  322           
03 29.11.20 110 (В) 2-5{05}  20000 м    10/10 300 м 
[Sc]
-9.2 -10.8 88 -11  1044.1  0.8  767  321  -11.9      11  равномерный
сухой снег
100% 
06 29.11.20 100 (В) 2-4{06}  4000 м  дымка  10/10 200 м 
[St]
-9 -10.6 88 -11  1045  768  321           
09 29.11.20 110 (В) 2-3{05}  4000 м  в посл. час морось{снег}  10/10 200 м 
[St]
-7.8 -9.4 88 -9  1045.8  0.8  769  320           
12 29.11.20 120 (ЮВ) 2-4{05}  4000 м  дымка{снег}  10/10 200 м 
[St]
-7.7 -9.2 89 -9  1046.2  0.4  769  320           
15 29.11.20 110 (В) 2-4{05}  4000 м  дымка  10/10 200 м 
[St]
-9.1 -10.7 88 -11  1047.1  0.8  769  322    -7.2  0.0     
18 29.11.20 110 (В) 2-4{05}  4000 м  дымка  10/10 300 м 
[St]
-7.6 -9.1 89 -9  1047  0.1  770  320           
21 29.11.20 110 (В) 3-5{05}  4000 м  дымка  10/10 300 м 
[St]
-6.4 -7.7 90 -9  1047  770  318           
00 30.11.20 120 (ЮВ) 2-4{05}  4000 м  дымка  10/10 200 м 
[St]
-4.9 -6.2 91 -6  1046.3  -0.5  769  316           
03 30.11.20 130 (ЮВ) 2-4{06}  4000 м  дымка  10/10 200 м 
[St]
-3.7 -4.9 91 -5  1046.3  0.1  769  315  -9.1      10  равномерный
сухой снег
100% 
06 30.11.20 130 (ЮВ) 3-6{06}  4000 м  дымка  10/10 200 м 
[St]
-3.2 -4.6 90 -5  1046.3  769  314           
09 30.11.20 130 (ЮВ) 2-6{07}  4000 м  дымка  10/8 200 м средняя 
[Frnb|As op]
-2.4 -4 89 -3  1045.8  -0.4  769  313           
12 30.11.20 120 (ЮВ) 3-5{07}  10 км    ясно 
-3.7 -5.4 88 -6  1045.3  -0.6  768  315           
15 30.11.20 140 (ЮВ) 3-6{07}  10 км    5/5 300 м 
[Sc]
-4.4 -6.1 88 -7  1044.2  -1.2  768  315    -2.2       
18 30.11.20 160 (Ю) 4-7{08}  20000 м    8/8 300 м 
[Sc]
-4.6 -6.9 84 -8  1043.8  -0.4  767  315           
21 30.11.20 140 (ЮВ) 2-5{07}  20000 м    ясно 
-6.3 -8.4 85 -8  1043.9  767  317           
00 01.12.20 140 (ЮВ) 3-5{07}  20000 м    3/3 300 м 
[Sc]
-7 -9.6 82 -10  1043.7  -0.3  767  318           
03 01.12.20 160 (Ю) 2-6{07}  20000 м    ясно 
-7.8 -10.9 78 -9  1043.8  767  319  -7.8      10  равномерный
сухой снег
100% 
06 01.12.20 160 (Ю) 3-6{07}  20000 м    1/0 средняя 
[Ac lent]
-7.9 -11.5 75 -11  1044.4  0.6  767  320  -8.4         
09 01.12.20 170 (Ю) 3-5{07}  20000 м    3/0 средняя, верхняя 
[Ac lent|Ci fib]
-5.6 -10.4 69 -8  1043.8  -0.4  767  317           
12 01.12.20 150 (ЮВ) 3-5{07}  20000 м    3/0 верхняя 
[Ci fib]
-7 -10.5 76 -10  1043.7  -0.2  767  318           
15 01.12.20 170 (Ю) 3-6{07}  20000 м    ясно 
-8.5 -11.3 80 -11  1043.5  -0.3  767  320    -5.5       
18 01.12.20 160 (Ю) 4-7{08}  20000 м    ясно 
-9.8 -12.3 82 -14  1043.2  -0.4  767  322           
Время (UTC), дата Ветер
(°,м/с) 
Видим.   Явления Облачность Т
(°С)
Тd
(°С)
f(%) Тe
(°С)
Pmin
(гПа)
dP
(гПа)
Po
(мм)
O2
(г/м3)
Тmin Tmax R s Состояние
почвы

Для получения пояснительной информации подведите курсор к названию столбца.

ПОГОДА в Кирове - архив

Всё, что Вы хотите узнать о погоде в Кирове - удобно и подробно!

Выберите нужную дату (начиная с 1 января 2019* года) и нажмите кнопку "Найти".
Будут отображены архивные сводки погоды по пункту Киров, начиная с указанной даты.


Отображать данные в формате CSV (для использования в таблицах Excel)


Внимание! Наш архив погоды предназначен исключительно для личного некоммерческого использования в познавательных целях. Если Вам необходимы официальные справки о состоянии погоды (для производственных, юридических, коммерческих и т.п. целей), обращайтесь в органы Росгидромета.

*Примечание: данная дата относится к архиву по метеостанциям СССР (Россия, СНГ, Балтия).
Архив по метеостанциям Зарубежной Европы и Азии (кроме Китая) хранится 10 дней, по другим регионам земного шара (Китай, Африка, Америка, Австралия, Океания) - 1 день.

Киров - район местоположения метеостанции


Название, широта, долгота, высота метеостанции:
Киров 58.6°ш. 49.6°д. 158 м над ур. моря [Российская Федерация]

Дополнительная информация

В oтличие oт бoльшинства пoгoдных сайтoв мы публикуем пoдрoбную метеoинфoрмацию в детальнoм прoфессиoнальнoм фoрмате.

Характеристики температуры и влажнoсти вoздуха измеряются на высoте 2 м в тени вдали oт зданий и деревьев.
Скoрoсть ветра измеряется на высoте 10 м (на урoвне рoста челoвека скoрoсть ветра ниже в 1.5-2 раза). Если метеoстанция нахoдится в гoрoде или в лесу, тo скoрoсть ветра занижена на 2-4 м/с пo сравнению с oткрытым местoм. Скoрoсть ветра над акватoриями крупных рек и oзёр, а также на вершинах хoлмoв на 2-5 м/с выше, чем в oбычных услoвиях.
Атмoсфернoе давление в разных тoчках местнoсти мoжет значительнo oтличаться oт давления на метеoстанции, в зависимoсти oт услoвий рельефа (при пoдъёме на 10 м давление пoнижается примернo на 1 мм рт.ст.).